Regional Weather Roundup
Issued by NWS Sterling, VA

Home | Current Version | Previous Version | Graphics & Text | Print | Product List | Glossary On
Versions: 1 2 3 4 5 6 7 8 9 10 11 12 13 14 15 16 17 18 19 20 21 22 23 24 25 26 27 28 29 30 31 32 33 34 35 36 37 38 39 40 41 42 43 44 45 46 47 48 49 50
000
ASUS41 KLWX 021710
RWRLWX

REGIONAL WEATHER ROUNDUP
NATIONAL WEATHER SERVICE BALTIMORE MD/WASHINGTON DC
100 PM EDT MON MAY 02 2016

Note: "FAIR" indicates few or no clouds below 12,000 feet
with no significant weather and/or obstructions to visibility.
 TC=TEMPERATURE CELSIUS

 * =Non NWS site. Station does not report precipitation (e.g. rain,
    snow, etc.), thunder, or fog.

DCZ001-MDZ009-015-VAZ040>042-051-053>054-021800-
WASHINGTON METRO

CITY           SKY/WX    TMP DP  RH WIND       PRES   REMARKS
WASHINGTON NAT NOT AVBL
DULLES         FAIR      68  61  78 SW8       29.92F
ANDREWS AFB    DRIZZLE   68  64  88 S12       29.91F
FT BELVOIR     CLOUDY    64  59  84 VRB6      29.93F
QUANTICO       CLOUDY    64  61  90 S6        29.94F
COLLEGE PARK*  FAIR      66  59  77 SW3       29.91F
LEESBURG*      PTSUNNY   70  64  83 SE5       29.92F
MANASSAS*      PTSUNNY   70  64  83 SW6       29.92F
GAITHERSBURG*  CLOUDY    64  59  82 S5        29.96F

$$

MDZ006>007-011-014-021800-
BALTIMORE METRO

CITY           SKY/WX    TMP DP  RH WIND       PRES   REMARKS
BWI AIRPORT    CLOUDY    63  59  87 W7        29.92F
MD SCIENCE CTR   N/A     59  55  87 MISG      29.94F
ANNAPOLIS      CLOUDY    59  57  93 VRB5      29.92F FOG
FORT MEADE*    PTSUNNY   64  59  82 CALM      29.94F

$$

MDZ012-015-019>023-021800-
MARYLAND EASTERN SHORE

CITY           SKY/WX    TMP DP  RH WIND       PRES   REMARKS
OCEAN CITY     MOSUNNY   61  57  87 S9        29.94F
SALISBURY      PTSUNNY   72  66  81 SW10      29.93S
CAMBRIDGE*     CLOUDY    68  63  83 SW7       29.92F
EASTON*        PTSUNNY  N/A N/A N/A SW10      29.96F

$$

MDZ017>025-021800-
SOUTHERN MARYLAND

CITY           SKY/WX    TMP DP  RH WIND       PRES   REMARKS
PATUXENT RIVER CLOUDY    68  61  78 VRB3      29.94F
ST INIGOES     CLOUDY    68  63  84 SW5       29.93F
LEONARDTOWN*   NOT AVBL

$$

MDZ003>005-021800-
NORTH CENTRAL MARYLAND

CITY           SKY/WX    TMP DP  RH WIND       PRES   REMARKS
FREDERICK*     PTSUNNY   64  63  94 SW6       29.94F
HAGERSTOWN APT SUNNY     73  61  65 S6        29.88F
WESTMINSTER*   MOSUNNY   70  48  46 SW7       29.91F

$$

MDZ501>502-021800-
WESTERN MARYLAND

CITY           SKY/WX    TMP DP  RH WIND       PRES   REMARKS
OAKLAND*       NOT AVBL
CUMBERLAND*    MOSUNNY   77  50  38 W10G21    29.92S

$$

VAZ025>031-021800-
SHENANDOAH VALLEY

CITY           SKY/WX    TMP DP  RH WIND       PRES   REMARKS
WINCHESTER*    PTSUNNY   79  61  53 SW13      29.88F
FRONT ROYAL*   FAIR      79  61  53 SW6       29.87F
LURAY*         FAIR      79  61  53 SW8       29.89F
NEW MARKET*    FAIR      78  64  62 S7        29.88F
STAUNTON*      FAIR      80  61  53 SW14      29.93F
WAYNESBORO*    FAIR      77  59  54 SW10G21   29.95F

$$

WVZ021-048>050-054>055-021800-
EASTERN WEST VIRGINIA PANHANDLE

CITY           SKY/WX    TMP DP  RH WIND       PRES   REMARKS
MARTINSBURG    FAIR      77  60  55 S8        29.87F
PETERSBURG*    FAIR      80  56  43 W15       29.90F

$$

VAZ036>039-050-021800-
CENTRAL FOOTHILLS

CITY           SKY/WX    TMP DP  RH WIND       PRES   REMARKS
CHARLOTTESVILL FAIR      79  66  64 S9        29.91F
CULPEPER*      CLOUDY    71  65  81 SW5       29.93F
ORANGE*        FAIR      77  64  65 SW6       29.93F
GORDONSVILLE*  FAIR      76  66  72 SW8       29.91F
WARRENTON*     PTSUNNY   71  60  69 S5        29.91F

$$

VAZ055>057-021800-
NORTH AND CENTRAL PIEDMONT

CITY           SKY/WX    TMP DP  RH WIND       PRES   REMARKS
FREDERICKSBRG* CLOUDY    71  67  89 S7        29.92F
STAFFORD*      CLOUDY    67  62  83 SE7       29.97F

$$

NCZ024-NYZ072-PAZ021-071-VAZ022-071-021800-
OTHER REGIONAL OBSERVATIONS

CITY           SKY/WX    TMP DP  RH WIND       PRES   REMARKS
NEW YORK CITY  CLOUDY    53  48  83 CALM      29.97F
PHILADELPHIA   CLOUDY    56  51  84 CALM      29.95F FOG
PITTSBURGH     PTSUNNY   67  54  63 NW13G20   29.91F
ROANOKE        FAIR      80  60  50 SW7       29.97F
RICHMOND       FAIR      79  66  64 SW9       29.94F
RALEIGH        PTSUNNY   81  69  67 SW8       29.99F

$$

ANZ530>537-021800-
MARINE OBSERVATIONS

STATION/POSITION TIME  TEMP    WIND        PRES
                       AIR SEA DIR/SP/G
                 (UTC) (F)     (DEG/KT/KT) (MB)
THOMAS PT LIGHT  1700   56 57  170/  8/  9 1014.5F
BALT KEY BRIDGE  1600   55     110/  6/  7 1013.8F
COVE POINT       1600   56     190/ 12/ 13 1014.6F
LEWISETTA        1600   59 59  110/  5/  5 1014.1F
SOLOMONS ISLAND  1600   61 59   60/  4/  4   N/A
PINEY POINT      1600          150/  5/  5   N/A

$$




USA.gov is the U.S. government's official web portal to all federal, state and local government web resources and services.